Location: ??
(34.9170°N, 135.5016°E)
Time: 18:17:25
(UTC+00:00)

Meteor 2-5 Rocket - Pass Details

Date: 29 October 2020
Orbit: 833 x 911 km, 81.2° (Epoch: 29 November)

Event Time Altitude Azimuth Distance (km) Brightness Sun altitude
Rises 19:32:48 0° 200° (SSW) 3,410 6.7 -21.9°
Reaches altitude 10° 19:35:15 10° 205° (SSW) 2,489 5.9 -21.4°
Maximum altitude 19:40:45 53° 281° (WNW) 1,069 3.8 -20.2°
Drops below altitude 10° 19:46:25 10° 358° (N) 2,555 6.1 -19.1°
Sets 19:48:59 0° 3° (N) 3,510 6.9 -18.5°
